EDT,Max TemperatureF,Mean TemperatureF,Min TemperatureF,Max Dew PointF,MeanDew PointF,Min DewpointF,Max Humidity, Mean Humidity, Min Humidity, Max Sea Level PressureIn, Mean Sea Level PressureIn, Min Sea Level PressureIn, Max VisibilityMiles, Mean VisibilityMiles, Min VisibilityMiles, Max Wind SpeedMPH, Mean Wind SpeedMPH, Max Gust SpeedMPH,PrecipitationIn, CloudCover, Events, WindDirDegrees
2012-3-1,77,65,53,63,52,34,88,63,24,29.84,29.76,29.68,10,10,10,9,3,20,0.03,1,Rain,219
2012-3-2,59,49,39,52,45,36,88,78,67,30.06,29.94,29.77,10,10,7,8,3,,0.00,3,Rain,85
2012-3-3,64,57,50,61,54,45,94,87,72,29.76,29.69,29.61,10,9,2,13,5,22,0.63,6,Rain,194
2012-3-4,50,46,42,46,38,25,93,76,40,29.87,29.74,29.68,10,9,2,9,2,18,0.54,7,Rain,328
2012-3-5,51,40,30,37,29,23,93,73,47,30.45,30.12,29.96,10,10,10,14,2,25,0.01,3,Rain,256
2012-3-6,50,38,26,32,25,18,93,66,28,30.71,30.64,30.50,10,10,10,8,2,,0.00,0,,112
2012-3-7,64,47,30,46,38,28,93,71,42,30.69,30.61,30.50,10,10,7,12,2,21,0.00,2,,180
2012-3-8,71,56,42,55,47,41,94,66,38,30.48,30.32,30.16,10,10,0,15,5,21,0.00,2,Fog,182
2012-3-9,60,48,37,55,47,34,94,83,71,30.29,30.16,30.07,10,9,3,20,5,25,0.19,5,Rain,110
2012-3-10,51,42,32,34,25,9,100,59,19,30.57,30.47,30.31,10,10,5,14,4,18,0.00,1,,11
2012-3-11,59,44,28,34,28,19,93,62,23,30.63,30.54,30.46,10,10,10,7,1,,0.00,0,,155
2012-3-12,69,50,32,46,39,30,100,68,38,30.47,30.39,30.26,10,10,10,10,2,17,0.00,0,,188
2012-3-13,73,63,53,61,53,46,94,76,57,30.27,30.21,30.11,10,10,7,10,5,18,0.13,5,Rain,189
2012-3-14,78,64,51,61,49,36,94,62,21,30.22,30.17,30.12,10,8,0,9,2,,0.00,1,Fog,105
2012-3-15,84,67,50,61,49,41,94,64,22,30.27,30.23,30.17,10,8,0,10,3,17,0.00,1,Fog,184
2012-3-16,78,68,59,63,57,52,88,69,42,30.22,30.17,30.10,10,10,10,9,4,,0.01,3,Rain,190
2012-3-17,71,62,53,61,56,52,94,80,50,30.27,30.21,30.15,10,6,0,10,2,20,0.01,3,Fog,64
2012-3-18,69,60,51,61,54,50,94,86,68,30.34,30.29,30.22,10,5,0,7,3,,0.00,7,Fog,23
2012-3-19,73,62,50,61,55,46,94,76,53,30.24,30.18,30.12,10,9,5,6,1,,0.00,2,,153
2012-3-20,78,64,51,63,57,50,94,75,42,30.25,30.20,30.13,10,6,0,10,1,16,0.52,2,Fog-Rain,69
2012-3-21,75,64,53,63,58,52,94,85,61,30.32,30.26,30.22,10,5,0,14,2,17,0.01,3,Fog,141
2012-3-22,78,68,57,63,57,54,94,75,44,30.30,30.25,30.14,10,9,5,7,2,,0.00,3,,183
2012-3-23,84,72,59,63,59,55,94,73,44,30.16,30.08,29.97,10,8,0,6,1,,0.00,2,Fog,188
2012-3-24,69,63,57,64,60,54,94,87,78,29.99,29.93,29.83,10,8,1,10,3,,0.48,3,Rain,167
2012-3-25,69,61,53,61,55,52,94,87,68,29.81,29.73,29.68,10,8,0,13,3,20,0.02,5,Fog-Rain,348
2012-3-26,71,62,53,52,44,27,94,61,20,29.95,29.83,29.76,10,9,3,17,5,23,0.09,3,Rain,344
2012-3-27,53,45,37,32,17,10,61,32,18,30.36,30.29,30.15,10,10,10,13,6,18,0.00,0,,360
2012-3-28,77,57,37,59,49,32,87,61,44,30.29,29.99,29.81,10,10,10,10,4,22,0.00,0,,194
2012-3-29,77,66,55,59,43,27,88,51,16,29.90,29.83,29.78,10,10,10,7,2,,0.00,0,,301
2012-3-30,69,56,44,52,44,37,87,67,37,30.09,30.02,29.93,10,10,4,10,2,,0.00,1,,100
2012-3-31,71,61,51,63,58,48,94,84,64,29.88,29.78,29.68,10,9,5,5,1,,0.02,3,Rain,207